Wind_Speed
60 60 60 58 56 56 55 55 56 55 49 45 47 50 50 50 54 59 58 54 53 47 34 31 34 34 35 36 37 39 40 39 39 38 37 36 34 31 29 27 26 25 25 24 22 19 17 16 16 16 17 18 21 24 24 25 26 27 27 27 27 28 28
61 60 59 58 57 57 56 55 56 53 49 48 50 51 52 52 55 61 59 53 53 50 37 31 33 35 34 34 37 39 40 40 39 38 37 36 33 31 30 28 27 27 26 25 23 21 18 17 16 17 18 19 22 24 26 26 27 27 27 28 28 29 29
60 60 59 58 58 57 55 55 54 52 52 53 53 54 56 55 56 60 58 53 52 50 38 31 33 35 33 33 36 40 40 40 39 37 37 35 32 32 31 30 30 29 28 27 25 23 20 19 18 18 19 20 22 24 26 27 27 29 30 30 30 31 31
60 60 59 59 59 58 56 56 55 55 55 54 52 53 55 55 56 58 56 52 52 49 39 32 32 35 34 34 37 40 40 39 38 37 36 35 33 32 31 31 31 31 30 29 27 25 23 21 20 19 19 20 20 23 25 27 28 29 30 31 31 32 31
60 60 60 60 60 60 59 58 58 58 58 56 53 54 54 54 55 56 54 52 51 47 40 34 32 34 35 35 37 39 40 39 37 37 36 35 34 32 31 32 32 32 32 30 29 28 27 25 23 22 20 20 20 22 24 26 28 29 29 30 31 31 31
61 60 60 60 61 61 61 61 61 60 59 59 58 57 57 57 57 57 55 53 49 45 41 38 34 34 35 36 37 38 39 39 38 37 37 36 35 33 32 32 31 32 33 33 32 32 31 30 27 24 22 22 22 22 23 25 27 28 29 30 31 31 31
61 60 60 60 60 61 61 62 63 61 60 61 61 60 58 57 58 58 56 54 49 43 41 40 37 35 36 37 38 38 38 38 38 38 38 38 37 35 33 32 32 32 32 33 35 36 34 32 29 27 25 23 22 22 23 25 26 27 28 30 31 32 32
59 59 60 59 58 60 62 63 64 63 62 63 62 61 59 58 59 58 57 56 48 40 39 40 38 37 37 38 39 40 39 38 37 38 39 39 38 36 34 33 33 33 31 32 35 38 37 34 32 30 28 25 24 23 24 24 25 27 29 30 31 32 32
57 55 59 60 58 59 62 63 64 64 64 64 62 61 60 60 60 58 58 57 46 37 37 39 39 38 39 39 40 41 41 40 39 40 41 40 38 37 35 33 32 32 30 29 31 35 37 35 33 31 29 27 26 25 24 24 25 27 29 31 32 32 32
59 56 60 64 62 61 63 64 65 65 65 64 63 62 61 61 60 57 58 57 44 35 35 38 39 39 39 40 41 42 42 42 42 43 43 41 39 38 38 36 33 32 30 28 29 33 36 36 33 32 30 28 27 26 25 25 26 27 28 30 32 33 33
61 59 61 64 63 62 63 65 66 66 66 65 65 64 63 61 60 58 58 54 41 34 35 37 38 39 38 39 41 42 43 44 45 46 45 44 42 41 40 39 37 35 32 30 29 31 34 35 34 32 30 28 28 28 27 27 27 28 29 30 32 33 34
60 62 62 63 63 62 62 65 66 66 66 66 66 66 64 61 59 60 59 51 40 37 37 37 37 38 39 40 40 42 45 46 46 47 46 45 45 45 44 42 40 38 35 32 30 30 31 33 33 33 31 29 29 29 29 29 29 29 29 30 31 33 34
57 62 63 63 63 62 61 63 65 66 67 67 67 66 64 62 61 61 57 48 41 38 37 36 37 39 40 41 42 43 45 46 46 46 46 47 47 47 46 45 43 41 38 35 32 32 32 33 34 33 31 29 29 31 31 31 31 30 30 30 31 33 34
54 59 63 63 63 62 62 61 63 65 67 68 68 67 64 63 63 60 53 46 43 40 35 34 35 38 41 42 43 44 46 46 47 47 47 47 48 49 49 48 46 45 42 39 36 36 36 37 37 36 33 30 29 31 32 32 32 31 31 31 32 33 33
51 55 61 63 63 62 62 61 61 64 67 68 68 66 65 64 64 59 52 46 45 41 36 33 35 40 43 44 44 45 45 46 47 47 47 47 48 49 50 50 50 48 45 43 40 39 38 38 38 37 35 32 30 31 32 33 33 32 31 31 32 32 33
51 52 57 62 64 63 62 62 62 63 66 68 68 67 66 65 63 59 52 47 45 42 36 34 38 43 45 44 44 44 45 46 46 46 46 46 46 48 51 53 53 51 49 46 42 39 39 38 38 38 36 34 32 32 32 33 33 32 32 31 31 32 34
52 51 53 58 62 64 64 63 62 63 66 68 68 67 67 66 63 59 53 48 45 42 37 36 41 46 46 44 43 44 45 45 45 45 44 44 45 46 48 48 47 47 48 47 43 40 39 38 37 37 36 33 31 31 32 33 34 33 32 31 32 33 35
51 51 52 55 60 64 66 64 61 63 66 67 68 68 68 67 63 59 54 49 45 42 38 37 41 44 44 42 42 42 43 44 44 44 43 42 41 40 39 39 40 42 46 47 44 41 38 36 35 37 36 33 32 32 32 33 34 34 33 32 32 34 36
47 51 52 54 58 65 67 64 61 63 65 66 67 69 69 67 63 59 55 50 47 43 40 39 39 41 41 41 40 40 41 42 42 41 38 35 32 31 32 33 35 40 45 47 46 44 40 36 35 36 34 33 33 33 32 33 35 35 34 33 33 35 37
43 49 53 56 59 63 65 64 62 62 65 66 66 68 69 67 64 60 56 52 48 44 43 41 40 40 40 40 39 38 38 38 37 34 29 26 25 26 27 28 30 35 40 44 46 45 41 38 37 36 34 33 34 33 32 33 35 35 34 34 34 35 37
40 46 53 56 57 59 62 64 63 62 64 66 66 67 68 67 64 61 57 52 49 47 46 44 42 41 41 41 40 38 36 35 33 29 25 24 25 26 28 30 32 34 36 40 44 44 41 39 38 37 36 35 34 34 33 34 36 36 35 34 34 35 36
39 42 51 56 56 57 59 62 63 62 62 65 66 66 67 67 65 62 58 54 51 50 49 47 44 43 44 43 42 39 37 36 32 29 28 27 26 26 28 31 33 35 36 38 40 41 41 41 40 39 38 38 36 35 34 35 36 36 35 34 34 35 36
41 41 49 55 56 57 58 59 62 63 62 64 66 66 67 68 65 62 59 55 52 52 51 48 46 46 46 45 44 41 39 37 35 34 33 30 26 25 26 29 31 33 35 36 38 40 41 42 42 41 41 40 38 36 36 37 37 36 34 33 33 34 35
43 40 46 54 55 55 55 55 59 63 63 63 64 66 67 68 65 62 60 56 54 54 51 47 47 48 48 47 46 43 41 40 39 39 38 34 29 27 26 26 28 29 30 32 36 37 39 40 42 43 42 41 39 37 38 38 38 35 34 33 33 34 36
43 39 43 51 54 53 53 52 55 61 64 63 63 65 67 67 64 62 60 57 56 55 52 48 48 49 50 50 48 45 44 43 43 43 40 37 33 31 28 25 25 25 25 28 32 33 35 38 41 42 41 40 38 39 39 38 37 36 34 34 34 35 35
42 39 41 48 53 53 52 51 52 58 63 64 64 65 66 65 64 62 60 57 57 56 53 51 50 51 52 52 49 46 46 47 48 46 43 40 37 35 32 28 25 23 24 27 31 32 33 36 38 39 39 38 38 39 38 37 37 37 36 35 34 34 34
40 39 42 47 52 53 51 50 50 54 60 64 64 64 64 63 61 60 58 57 57 56 54 53 52 53 54 53 49 48 49 50 50 48 45 43 40 38 37 33 29 27 27 28 30 32 33 34 35 36 36 35 37 38 38 38 39 38 36 35 33 33 33
38 39 42 48 52 53 51 50 49 52 58 62 63 62 61 61 59 57 56 56 58 57 55 54 54 55 55 53 50 50 52 53 52 50 48 45 43 42 40 36 31 29 28 28 30 33 35 35 35 33 32 33 37 39 39 40 39 37 36 35 34 33 33
38 40 42 48 52 52 51 51 50 52 56 60 60 60 60 59 57 56 54 53 56 59 56 54 55 57 56 54 54 53 54 55 54 52 49 47 45 44 41 36 32 29 28 28 30 34 35 36 35 32 30 32 37 40 40 39 38 37 37 36 36 36 36
38 40 43 47 50 50 50 52 51 51 54 57 58 58 59 58 55 54 54 53 54 58 59 56 56 58 57 56 57 56 55 56 56 53 50 48 47 45 41 36 32 28 27 29 34 36 37 37 35 32 30 32 38 41 40 39 39 39 39 39 39 40 40
36 38 41 44 47 47 48 51 53 52 52 55 58 57 57 57 54 50 52 53 54 57 60 58 56 58 58 58 59 59 57 57 57 55 52 50 47 44 41 37 32 28 27 30 36 38 38 37 36 34 31 32 37 40 41 40 40 41 41 42 42 43 43
32 36 38 40 43 44 46 50 54 53 51 51 55 57 57 57 54 48 48 51 53 56 60 60 58 58 59 61 62 61 59 58 57 56 53 51 48 45 41 37 33 30 28 31 36 38 39 38 37 35 33 32 35 38 40 40 40 41 42 44 45 46 46
31 37 38 39 41 42 44 49 53 54 53 50 51 55 57 57 55 49 47 49 52 54 58 61 60 59 60 62 63 62 61 59 58 57 55 53 49 47 43 39 35 32 31 32 35 37 38 37 37 36 34 33 34 36 38 39 40 42 44 46 45 45 46
29 37 39 39 40 41 44 49 52 53 55 53 51 53 57 58 54 49 48 50 52 54 57 61 61 60 61 62 63 62 62 61 59 58 57 55 51 48 45 41 37 35 34 35 36 37 37 37 36 35 34 34 34 35 37 39 41 43 45 47 44 41 40
26 35 39 38 39 41 45 50 52 52 55 56 53 53 57 59 55 49 48 51 53 55 57 60 62 62 62 63 64 63 61 61 60 59 58 56 52 50 47 43 40 38 38 38 39 39 39 38 36 35 34 35 36 36 37 39 41 44 46 47 46 43 41
21 31 38 40 41 43 47 51 53 54 55 56 55 54 56 59 58 52 50 53 54 55 57 59 62 63 63 63 64 64 63 61 61 60 59 57 54 51 48 46 43 42 41 41 41 42 41 40 39 37 36 36 36 36 37 39 42 44 45 47 47 46 43
19 26 36 41 43 44 48 51 54 55 56 56 56 55 56 60 59 53 49 52 56 56 57 59 61 63 64 64 64 65 64 62 61 60 59 58 56 53 50 47 46 45 44 44 43 43 44 43 42 41 40 39 38 37 37 39 41 43 45 46 46 46 45
Wind_Direction
215 214 213 211 210 211 213 214 217 217 215 216 220 224 226 224 226 229 226 222 229 232 216 195 199 204 199 196 200 205 209 211 213 213 211 211 211 211 212 211 210 209 203 197 190 187 189 189 189 191 193 196 198 197 198 201 200 198 195 196 197 198 200
215 214 214 212 211 213 214 215 217 218 216 216 217 220 223 223 224 230 228 222 227 232 222 202 200 204 201 196 197 201 206 210 212 212 212 212 211 211 211 210 209 208 206 201 194 190 190 189 190 193 193 195 198 198 198 200 200 200 199 198 199 200 201
214 213 213 213 212 212 214 216 217 218 218 217 217 218 220 221 223 229 229 222 225 229 222 205 202 205 203 197 197 200 204 208 209 209 211 210 208 208 208 209 210 208 206 203 198 193 190 191 195 199 199 198 199 200 200 200 200 201 202 200 201 202 202
214 213 212 213 213 212 212 215 216 218 219 220 219 220 222 223 224 228 229 224 223 226 221 208 202 205 205 199 197 199 202 206 207 207 208 207 206 206 207 208 211 210 208 205 201 195 191 192 197 203 206 203 201 202 203 201 201 203 205 204 203 203 204
213 213 212 212 213 212 211 213 215 216 218 219 219 220 222 224 226 229 231 226 223 224 222 214 205 203 205 202 198 198 201 202 203 204 207 206 204 205 206 208 211 212 210 207 204 198 194 195 196 201 206 205 204 204 204 204 203 204 206 207 208 207 207
213 213 213 212 213 213 211 212 215 216 217 219 219 218 219 222 225 227 229 226 222 221 221 218 210 203 204 205 200 198 200 201 201 203 205 205 204 204 206 209 211 215 214 210 207 203 201 200 198 200 205 206 206 205 204 205 205 204 206 209 210 210 210
213 213 214 213 213 213 213 213 215 216 217 219 220 219 218 221 224 226 228 226 219 215 217 217 213 204 201 204 203 199 199 200 201 203 205 205 205 205 208 211 214 217 217 215 211 208 206 205 201 201 205 207 208 207 206 206 205 204 205 208 211 211 211
213 215 215 214 213 214 213 213 214 215 217 220 221 220 219 221 224 226 228 227 217 211 214 215 212 207 201 202 203 201 200 201 201 204 206 207 209 210 210 212 215 219 220 219 217 214 211 209 206 205 205 205 207 209 208 206 205 205 205 206 210 212 212
213 216 217 214 213 213 213 213 214 215 217 219 220 222 221 222 224 225 228 228 217 206 211 214 211 208 203 200 201 201 201 201 202 204 206 208 210 211 211 211 214 219 222 220 220 220 217 214 212 210 209 206 207 210 210 207 206 207 206 206 208 210 213
210 214 216 214 212 212 212 213 214 215 217 218 219 221 222 222 223 225 229 230 219 205 209 213 212 209 205 201 201 201 200 199 201 203 205 207 210 210 209 210 212 217 220 218 216 219 220 219 217 216 215 211 208 210 210 207 207 208 208 208 208 209 212
209 211 215 215 212 211 211 212 213 214 216 217 218 220 222 222 223 224 229 229 220 207 208 212 213 212 209 205 202 201 201 199 199 201 203 205 208 208 208 209 210 212 214 214 213 215 219 221 222 222 221 216 213 213 211 209 208 208 209 209 209 209 211
211 210 213 215 214 212 212 212 213 214 215 217 218 220 221 222 222 224 227 227 220 211 208 210 213 213 210 208 205 203 203 203 202 202 202 203 204 205 206 207 208 208 208 209 209 210 215 220 223 226 226 221 218 217 214 212 210 210 210 210 210 211 211
213 210 211 215 215 213 212 212 213 214 215 216 218 219 221 222 223 224 225 223 219 216 211 209 215 216 212 209 207 204 202 204 205 204 204 203 202 203 204 204 205 205 204 205 207 208 212 218 223 227 228 224 223 222 220 216 214 211 211 212 212 212 212
215 211 211 214 215 214 212 212 212 214 215 216 218 219 219 221 223 224 222 219 218 217 212 209 213 218 215 211 208 205 202 203 205 206 206 205 204 203 203 203 204 203 201 202 207 210 212 217 221 225 227 225 225 227 225 223 220 216 214 214 213 213 213
217 214 212 213 215 215 212 211 212 214 215 216 217 218 219 221 223 223 220 217 217 216 212 209 210 214 216 213 209 207 205 205 206 207 207 206 205 204 204 205 205 205 202 202 207 211 212 215 218 220 223 224 223 225 225 225 224 221 217 217 216 215 213
219 216 214 214 214 215 213 211 211 213 215 216 217 218 219 220 222 222 218 215 215 214 212 210 208 211 214 212 209 208 207 207 208 209 209 209 207 206 206 207 207 207 205 204 207 210 211 212 214 217 221 222 221 223 224 225 225 224 220 219 218 216 214
220 218 216 214 214 215 214 211 210 213 214 215 216 217 219 220 220 220 216 212 211 211 210 210 208 209 212 211 208 207 206 207 209 210 211 212 211 209 209 211 211 210 209 208 207 209 211 211 212 215 219 222 222 222 222 223 225 226 223 221 220 218 215
223 220 218 215 214 214 213 210 210 212 214 214 216 217 218 219 219 219 215 210 208 207 207 209 209 209 211 211 208 206 205 205 208 211 213 214 214 213 213 215 215 213 214 212 208 208 210 209 209 214 218 219 221 222 220 221 224 226 225 223 221 219 217
226 222 220 218 215 212 211 209 209 212 213 214 215 217 218 218 218 218 214 209 207 203 202 205 207 207 208 209 206 203 201 202 206 209 211 213 214 215 215 216 216 215 216 214 210 207 206 204 206 212 215 217 221 221 220 220 223 226 226 224 222 220 218
227 224 222 219 213 210 210 210 209 211 213 214 215 217 218 218 217 216 213 208 205 201 197 199 202 203 205 206 202 199 199 201 203 204 204 206 211 214 216 217 218 219 218 216 213 209 204 203 207 212 214 219 223 222 220 221 223 226 227 226 224 221 219
227 225 223 220 214 211 211 210 209 210 212 214 215 216 218 218 217 215 212 208 204 200 194 194 198 201 204 203 199 196 199 201 199 198 200 206 213 218 220 219 217 217 216 216 215 210 204 204 210 215 218 223 225 222 220 221 223 226 227 227 225 222 219
226 225 223 220 216 213 210 209 208 209 212 214 215 216 218 218 216 215 212 207 204 200 195 195 199 203 204 202 198 196 199 199 198 198 201 207 213 219 221 220 217 214 213 214 214 210 206 206 211 217 222 226 226 222 219 220 224 226 227 227 226 222 219
226 224 222 220 218 214 210 208 208 209 211 214 215 217 219 218 216 214 212 208 204 202 199 198 200 203 204 202 199 198 199 198 198 199 199 200 205 214 220 221 219 216 214 212 212 211 209 210 213 218 222 226 225 219 217 220 223 226 227 228 226 221 218
225 225 222 220 218 215 211 208 207 209 211 213 215 217 218 218 216 214 211 208 205 204 201 198 199 202 203 201 199 199 199 198 197 197 197 195 198 207 214 216 216 216 214 211 212 212 211 211 214 216 220 223 221 215 214 219 223 225 227 226 223 219 217
224 223 221 220 219 217 211 207 207 209 211 213 215 217 217 217 217 215 211 208 206 205 202 198 198 200 201 200 199 198 197 197 196 196 196 196 198 205 211 211 211 212 211 210 210 211 210 211 213 216 219 220 216 211 213 218 221 224 225 224 220 218 217
221 219 217 218 219 216 210 206 206 209 211 213 215 215 216 218 218 216 212 208 206 206 204 200 198 200 201 200 198 196 195 196 196 195 197 198 200 205 209 210 209 210 210 210 211 211 211 212 214 217 219 218 213 211 213 217 220 223 224 223 220 218 215
216 213 212 215 217 215 208 205 206 208 210 213 214 215 217 218 218 217 214 209 206 206 206 202 199 200 202 200 197 195 195 196 196 196 198 200 201 204 208 209 210 210 209 211 213 214 215 217 218 220 220 216 213 211 212 216 220 223 224 224 221 216 212
205 203 206 212 215 213 207 203 205 207 208 211 214 215 217 217 218 218 216 211 208 207 207 204 200 201 203 200 196 195 195 196 197 199 201 202 202 204 205 207 210 210 209 209 213 215 218 221 222 223 221 215 213 212 213 216 220 223 224 224 221 214 210
191 193 201 209 213 212 207 202 203 205 207 211 213 215 216 216 216 218 217 214 210 208 208 205 202 202 203 200 196 196 197 197 199 201 203 204 205 205 205 206 208 208 206 207 210 214 218 221 224 224 221 215 213 213 214 216 219 222 223 222 218 213 210
186 191 198 205 211 212 207 202 202 203 206 210 212 214 215 215 214 217 218 215 213 211 209 207 204 203 204 201 198 198 199 199 201 204 206 207 208 207 206 206 206 205 204 205 208 213 216 220 223 225 221 215 214 215 214 214 217 220 222 221 218 216 215
188 191 195 203 209 210 205 202 202 202 204 209 212 214 214 213 212 215 217 215 215 213 210 208 205 204 204 203 201 200 201 201 203 206 208 210 211 209 207 206 206 205 204 204 207 212 217 219 222 224 222 217 216 216 214 213 215 219 221 222 221 220 218
189 190 193 202 208 207 203 201 202 202 203 207 212 214 214 211 210 213 216 216 216 215 212 210 206 204 204 205 204 202 202 202 204 207 210 213 213 212 210 208 207 208 207 205 207 212 217 219 221 223 222 219 217 216 214 214 216 219 223 225 226 225 223
186 189 196 205 208 204 201 201 202 202 203 205 210 213 213 211 210 214 218 216 214 215 214 211 208 204 204 205 205 204 204 204 204 207 211 215 215 214 213 210 208 209 209 207 209 213 216 218 220 221 221 220 218 215 214 214 216 219 223 227 230 231 231
184 190 199 208 207 202 200 202 203 204 205 205 208 211 212 209 209 215 220 217 213 214 215 213 209 206 205 206 206 205 205 206 206 208 211 216 217 216 214 212 209 209 209 208 209 213 215 217 218 220 220 219 218 216 215 215 217 220 224 228 232 234 236
185 192 200 207 206 202 201 203 204 205 207 207 207 209 211 209 209 215 220 218 215 214 214 214 212 209 206 206 207 207 207 207 208 209 211 215 218 217 216 214 211 209 209 209 209 212 215 217 217 216 216 216 217 218 218 219 221 225 228 231 234 236 238
183 194 201 207 207 204 204 205 205 205 207 208 207 209 211 209 210 216 220 219 216 215 213 212 212 211 209 208 208 208 208 208 209 210 211 214 217 217 216 215 214 211 210 210 210 211 214 216 217 216 215 214 215 217 219 222 224 227 230 234 236 238 240
180 195 204 208 208 207 206 207 207 206 206 207 207 209 211 211 213 219 221 218 217 216 213 211 211 211 210 209 209 210 210 209 210 211 212 213 215 216 214 213 212 211 211 211 211 212 213 215 216 217 217 217 218 218 220 223 225 227 231 234 237 239 240
Height
5765 5769 5774 5780 5784 5786 5788 5790 5791 5796 5804 5810 5811 5812 5814 5818 5819 5815 5819 5827 5828 5832 5844 5852 5855 5857 5859 5862 5864 5868 5871 5874 5876 5879 5882 5884 5886 5888 5890 5892 5894 5895 5895 5896 5897 5898 5900 5902 5903 5905 5906 5908 5909 5911 5913 5916 5918 5920 5922 5923 5925 5927 5929
5758 5764 5771 5776 5780 5782 5784 5787 5790 5796 5801 5802 5803 5805 5807 5811 5812 5808 5813 5825 5828 5830 5841 5849 5853 5855 5858 5860 5862 5865 5868 5871 5873 5877 5880 5882 5884 5887 5888 5890 5892 5893 5894 5895 5896 5897 5899 5900 5902 5903 5904 5905 5907 5909 5911 5913 5916 5918 5920 5921 5923 5924 5926
5752 5759 5765 5770 5773 5777 5781 5784 5788 5791 5793 5794 5796 5799 5800 5804 5805 5802 5808 5821 5825 5827 5837 5846 5850 5853 5856 5859 5861 5862 5865 5868 5871 5875 5877 5880 5882 5884 5886 5888 5889 5891 5893 5894 5895 5896 5897 5899 5900 5901 5902 5904 5905 5907 5909 5911 5913 5915 5917 5918 5920 5922 5924
5747 5753 5758 5762 5767 5771 5775 5778 5781 5783 5785 5789 5793 5796 5798 5801 5802 5801 5807 5816 5820 5824 5835 5843 5848 5851 5853 5856 5858 5860 5863 5866 5870 5873 5876 5878 5880 5882 5884 5886 5887 5889 5891 5893 5894 5895 5896 5897 5898 5899 5901 5902 5904 5905 5907 5909 5911 5912 5914 5916 5918 5920 5922
5741 5746 5750 5755 5759 5763 5768 5770 5772 5775 5779 5783 5788 5791 5795 5798 5799 5800 5804 5810 5816 5824 5833 5840 5845 5848 5851 5853 5856 5858 5861 5864 5868 5871 5874 5876 5878 5880 5882 5884 5886 5888 5889 5891 5892 5893 5894 5894 5896 5897 5899 5901 5902 5903 5905 5907 5909 5911 5913 5915 5917 5918 5920
5734 5740 5744 5749 5753 5756 5761 5763 5765 5770 5775 5778 5781 5785 5789 5792 5793 5795 5799 5805 5813 5822 5829 5835 5841 5845 5848 5851 5854 5856 5859 5862 5865 5869 5871 5873 5876 5878 5880 5882 5884 5885 5887 5889 5890 5891 5891 5892 5893 5895 5897 5899 5900 5902 5903 5905 5907 5909 5911 5913 5915 5917 5919
5729 5735 5738 5742 5747 5750 5755 5758 5761 5766 5770 5772 5775 5781 5786 5788 5789 5792 5795 5800 5809 5819 5825 5830 5835 5840 5844 5847 5851 5854 5857 5860 5863 5866 5868 5871 5873 5876 5878 5880 5881 5883 5885 5886 5887 5888 5889 5890 5892 5893 5895 5897 5898 5900 5901 5903 5905 5907 5909 5911 5912 5914 5916
5725 5729 5731 5736 5742 5745 5749 5753 5756 5761 5764 5766 5771 5777 5781 5783 5785 5788 5791 5795 5806 5818 5823 5826 5831 5835 5839 5842 5846 5851 5854 5857 5860 5863 5865 5868 5871 5873 5875 5876 5878 5880 5881 5883 5885 5886 5887 5889 5890 5891 5893 5895 5896 5898 5899 5901 5903 5904 5906 5908 5910 5912 5914
5719 5722 5725 5730 5734 5738 5743 5747 5751 5755 5758 5762 5768 5773 5777 5779 5781 5786 5787 5790 5805 5818 5821 5823 5827 5830 5834 5838 5841 5845 5849 5853 5856 5859 5862 5864 5867 5870 5871 5873 5875 5876 5878 5880 5883 5885 5887 5888 5889 5890 5891 5893 5894 5896 5897 5899 5901 5902 5904 5905 5907 5910 5912
5710 5714 5717 5721 5726 5731 5736 5740 5745 5749 5753 5758 5763 5767 5770 5774 5778 5784 5784 5788 5804 5817 5818 5819 5823 5825 5830 5834 5837 5841 5845 5849 5852 5854 5857 5860 5863 5865 5867 5869 5871 5873 5875 5877 5880 5883 5885 5887 5888 5889 5890 5891 5892 5894 5895 5897 5898 5899 5901 5903 5905 5907 5909
5703 5708 5711 5715 5721 5726 5730 5734 5739 5743 5748 5753 5757 5760 5764 5770 5776 5780 5780 5787 5804 5813 5814 5816 5819 5822 5826 5829 5833 5837 5840 5843 5846 5849 5851 5854 5858 5861 5863 5865 5866 5868 5871 5874 5877 5880 5882 5884 5886 5887 5889 5890 5891 5892 5893 5894 5895 5897 5899 5901 5903 5905 5907
5697 5702 5706 5710 5716 5721 5725 5730 5735 5739 5743 5748 5752 5756 5761 5767 5773 5775 5777 5788 5802 5807 5809 5812 5814 5816 5820 5824 5827 5831 5834 5837 5840 5843 5846 5849 5852 5855 5857 5859 5862 5864 5867 5870 5873 5876 5879 5882 5884 5885 5887 5889 5890 5890 5891 5892 5893 5895 5896 5898 5901 5903 5904
5691 5696 5701 5705 5710 5715 5721 5725 5730 5735 5739 5743 5747 5752 5758 5764 5767 5769 5777 5789 5797 5801 5805 5809 5810 5813 5815 5818 5821 5824 5828 5831 5834 5838 5841 5844 5846 5849 5852 5855 5857 5860 5864 5866 5869 5872 5876 5878 5881 5882 5884 5886 5888 5888 5889 5890 5891 5892 5894 5896 5898 5900 5902
5685 5691 5696 5700 5704 5710 5716 5721 5726 5730 5734 5738 5743 5748 5754 5759 5761 5766 5778 5787 5792 5796 5802 5806 5808 5809 5811 5814 5816 5819 5822 5825 5828 5831 5835 5839 5842 5845 5848 5851 5854 5856 5860 5863 5866 5869 5871 5874 5877 5879 5881 5884 5886 5887 5888 5889 5889 5890 5892 5894 5896 5898 5900
5679 5685 5690 5694 5699 5705 5711 5717 5721 5725 5729 5734 5738 5744 5750 5753 5756 5765 5776 5783 5787 5792 5798 5800 5803 5805 5807 5810 5813 5815 5818 5820 5823 5826 5830 5834 5838 5841 5844 5847 5850 5853 5856 5859 5862 5865 5867 5870 5873 5876 5878 5881 5883 5885 5886 5887 5888 5889 5890 5892 5894 5896 5898
5673 5679 5684 5689 5695 5700 5706 5711 5716 5720 5724 5729 5734 5740 5744 5747 5753 5762 5772 5779 5784 5789 5793 5796 5798 5800 5802 5806 5810 5813 5815 5818 5821 5824 5827 5831 5834 5837 5840 5842 5845 5848 5851 5854 5858 5861 5864 5867 5870 5873 5875 5877 5880 5882 5883 5885 5886 5887 5888 5890 5892 5894 5895
5668 5674 5678 5684 5690 5694 5699 5706 5712 5717 5720 5725 5731 5734 5737 5742 5749 5758 5767 5775 5780 5785 5789 5792 5794 5796 5798 5802 5806 5809 5813 5816 5819 5821 5824 5827 5830 5833 5836 5840 5843 5847 5849 5851 5854 5858 5861 5864 5868 5870 5872 5875 5878 5880 5881 5882 5883 5885 5886 5888 5889 5891 5892
5664 5668 5673 5678 5682 5686 5693 5702 5709 5713 5716 5721 5726 5728 5732 5738 5746 5754 5764 5772 5778 5782 5786 5788 5791 5793 5796 5799 5802 5807 5810 5814 5816 5819 5821 5824 5827 5831 5835 5838 5841 5844 5846 5848 5851 5855 5858 5862 5865 5867 5869 5872 5874 5876 5877 5879 5880 5882 5883 5885 5886 5888 5889
5658 5663 5667 5671 5674 5680 5690 5699 5705 5708 5712 5717 5721 5723 5727 5734 5742 5750 5759 5767 5773 5778 5782 5785 5788 5791 5793 5796 5799 5803 5807 5811 5814 5816 5819 5822 5825 5828 5831 5834 5836 5839 5842 5845 5848 5850 5854 5858 5860 5862 5866 5868 5870 5872 5874 5876 5877 5879 5881 5882 5883 5884 5886
5653 5658 5661 5664 5670 5679 5687 5693 5699 5704 5708 5713 5717 5720 5724 5730 5737 5745 5754 5762 5769 5774 5778 5782 5785 5788 5791 5794 5797 5801 5805 5808 5811 5815 5818 5821 5823 5826 5828 5830 5832 5835 5837 5841 5844 5847 5850 5854 5856 5859 5862 5865 5867 5869 5872 5873 5874 5876 5878 5879 5880 5882 5884
5648 5653 5657 5662 5670 5676 5680 5687 5694 5700 5704 5709 5714 5717 5720 5725 5733 5741 5750 5759 5765 5770 5775 5779 5783 5786 5788 5791 5794 5799 5802 5806 5809 5813 5817 5819 5821 5822 5824 5826 5828 5830 5833 5836 5840 5843 5846 5849 5853 5856 5859 5861 5863 5866 5868 5870 5871 5873 5875 5877 5878 5880 5882
5644 5649 5653 5659 5665 5669 5675 5683 5691 5697 5702 5706 5710 5713 5716 5721 5728 5737 5746 5754 5760 5765 5770 5775 5779 5782 5785 5788 5792 5796 5800 5803 5807 5811 5814 5816 5818 5820 5821 5823 5825 5828 5830 5833 5836 5839 5842 5845 5849 5852 5855 5858 5860 5863 5865 5867 5868 5870 5873 5874 5876 5878 5880
5640 5644 5649 5655 5660 5666 5673 5681 5688 5693 5697 5701 5706 5710 5712 5716 5724 5733 5742 5750 5756 5760 5765 5771 5775 5779 5782 5786 5790 5794 5797 5801 5805 5808 5811 5813 5816 5818 5819 5820 5822 5824 5827 5829 5832 5835 5838 5841 5845 5848 5851 5853 5856 5859 5862 5864 5865 5868 5870 5872 5874 5876 5877
5635 5640 5646 5652 5658 5663 5670 5677 5684 5689 5693 5697 5702 5705 5708 5713 5721 5729 5737 5745 5751 5755 5761 5767 5771 5775 5778 5783 5787 5791 5794 5798 5801 5804 5807 5810 5813 5816 5817 5818 5819 5821 5824 5826 5829 5832 5835 5839 5842 5844 5847 5849 5853 5856 5859 5861 5863 5866 5869 5870 5872 5873 5874
5631 5637 5644 5650 5654 5659 5666 5674 5680 5685 5689 5693 5697 5701 5705 5712 5718 5725 5733 5741 5746 5751 5757 5763 5767 5770 5775 5779 5783 5787 5791 5795 5798 5801 5803 5806 5809 5813 5815 5817 5818 5819 5821 5824 5826 5830 5833 5836 5838 5841 5843 5846 5850 5853 5856 5859 5862 5865 5866 5867 5869 5870 5872
5627 5634 5641 5646 5649 5655 5663 5671 5676 5681 5685 5689 5693 5698 5704 5709 5715 5721 5729 5737 5743 5748 5753 5759 5763 5767 5771 5775 5779 5785 5789 5792 5794 5797 5800 5803 5806 5809 5813 5815 5816 5818 5820 5822 5824 5827 5830 5833 5836 5838 5841 5844 5848 5851 5855 5858 5860 5862 5863 5865 5867 5869 5871
5625 5630 5636 5641 5645 5652 5660 5667 5672 5677 5682 5686 5691 5696 5701 5707 5713 5719 5726 5734 5740 5744 5749 5754 5759 5763 5767 5771 5777 5782 5785 5788 5791 5794 5796 5799 5802 5806 5809 5812 5814 5816 5818 5820 5823 5826 5828 5831 5833 5836 5839 5843 5846 5850 5853 5856 5857 5859 5861 5864 5866 5868 5870
5622 5627 5632 5638 5643 5649 5657 5663 5668 5673 5679 5683 5688 5693 5698 5704 5711 5717 5723 5731 5736 5740 5744 5750 5755 5759 5763 5769 5775 5778 5781 5784 5787 5790 5793 5796 5799 5802 5806 5809 5811 5813 5815 5818 5821 5823 5826 5828 5831 5834 5838 5841 5844 5847 5850 5853 5855 5857 5860 5862 5864 5866 5868
5621 5625 5630 5635 5640 5646 5653 5659 5664 5670 5675 5680 5685 5690 5696 5701 5708 5714 5720 5726 5731 5736 5740 5745 5751 5755 5760 5765 5770 5774 5777 5781 5784 5787 5790 5793 5796 5799 5803 5806 5809 5811 5813 5815 5818 5821 5824 5826 5829 5832 5835 5838 5841 5844 5847 5850 5853 5856 5858 5860 5862 5864 5865
5620 5624 5627 5632 5638 5644 5650 5657 5662 5667 5672 5677 5683 5688 5693 5698 5705 5711 5716 5721 5727 5732 5736 5741 5747 5751 5756 5762 5766 5770 5774 5777 5781 5784 5787 5790 5793 5797 5800 5803 5806 5808 5810 5813 5816 5818 5821 5823 5826 5829 5832 5835 5838 5840 5844 5848 5851 5853 5855 5857 5858 5860 5861
5618 5621 5625 5631 5636 5641 5649 5655 5660 5665 5670 5675 5680 5684 5690 5696 5702 5707 5712 5717 5722 5727 5732 5737 5742 5747 5752 5757 5761 5765 5770 5774 5777 5781 5784 5787 5790 5794 5797 5800 5803 5805 5808 5810 5813 5815 5818 5821 5824 5826 5829 5831 5834 5837 5841 5844 5847 5849 5851 5853 5854 5856 5858
5617 5620 5625 5630 5634 5640 5647 5652 5657 5662 5668 5673 5677 5682 5687 5693 5699 5704 5708 5712 5717 5722 5727 5732 5738 5743 5748 5752 5756 5761 5765 5769 5773 5778 5781 5784 5787 5791 5794 5797 5800 5802 5805 5807 5810 5812 5815 5818 5821 5823 5826 5828 5830 5833 5837 5840 5843 5846 5848 5849 5850 5852 5854
5617 5621 5625 5629 5633 5639 5645 5649 5654 5659 5664 5670 5675 5679 5684 5689 5695 5700 5704 5708 5713 5717 5722 5727 5733 5738 5743 5747 5752 5756 5761 5765 5769 5774 5778 5781 5784 5788 5791 5794 5797 5799 5802 5804 5807 5809 5812 5815 5818 5820 5823 5825 5828 5831 5834 5837 5840 5842 5844 5845 5846 5848 5850
5617 5621 5624 5628 5632 5638 5643 5647 5651 5656 5661 5665 5671 5675 5679 5685 5691 5695 5699 5703 5708 5713 5717 5722 5728 5734 5738 5743 5747 5752 5756 5761 5765 5770 5773 5777 5780 5784 5788 5791 5793 5796 5799 5801 5804 5806 5808 5811 5814 5817 5820 5822 5825 5828 5831 5834 5836 5838 5839 5841 5843 5844 5845
5617 5620 5623 5626 5631 5636 5639 5643 5648 5653 5657 5662 5667 5671 5676 5681 5687 5692 5695 5698 5702 5707 5712 5717 5723 5728 5733 5738 5743 5747 5751 5756 5760 5765 5769 5773 5776 5780 5784 5787 5790 5793 5795 5798 5800 5803 5805 5808 5811 5814 5817 5819 5822 5825 5828 5830 5832 5834 5835 5837 5839 5840 5841
5616 5619 5621 5624 5628 5632 5635 5639 5643 5648 5653 5659 5664 5669 5673 5678 5683 5687 5690 5693 5697 5702 5707 5711 5716 5721 5727 5733 5738 5742 5746 5751 5755 5760 5764 5768 5772 5775 5779 5783 5786 5789 5792 5794 5797 5799 5802 5805 5807 5810 5813 5816 5819 5821 5824 5826 5828 5830 5831 5832 5834 5836 5838
5615 5617 5619 5621 5625 5628 5632 5635 5640 5645 5650 5656 5661 5665 5669 5674 5679 5683 5687 5690 5694 5698 5702 5706 5711 5715 5721 5727 5733 5737 5742 5746 5750 5755 5759 5763 5767 5771 5775 5778 5782 5785 5788 5791 5793 5796 5798 5801 5804 5806 5809 5812 5815 5817 5820 5822 5824 5826 5827 5829 5830 5832 5833